Regional Weather Roundup
Issued by NWS Jackson, KY

Home | Current Version | Previous Version | Text Only | Print | Product List | Glossary On
Versions: 1 2 3 4 5 6 7 8 9 10 11 12 13 14 15 16 17 18 19 20 21 22 23 24 25 26 27 28 29 30 31 32 33 34 35 36 37 38 39 40 41 42 43 44 45 46 47 48 49 50
000
ASUS43 KJKL 261911
RWRJKL

EAST KENTUCKY HOURLY WEATHER ROUNDUP
NATIONAL WEATHER SERVICE JACKSON KY
200 PM EST MON JAN 26 2015

NOTE: "FAIR" INDICATES FEW OR NO CLOUDS BELOW 12,000 FEET WITH
NO SIGNIFICANT WEATHER AND/OR OBSTRUCTIONS TO VISIBILITY.

* THESE REPORTS ARE NOT UNDER NWS QUALITY CONTROL AND MAY NOT
  REPORT WEATHER SUCH AS PRECIPITATION AND FOG.

KYZ079-080-083-085-087-088-110-112-115-119-120-262000
...EASTERN KENTUCKY...

CITY           SKY/WX    TMP DP  RH WIND       PRES   REMARKS
JACKSON        CLOUDY    25  21  85 W6        29.82F WCI  18
LONDON         CLOUDY    28  21  75 W8        29.87S WCI  20
SOMERSET*      CLOUDY    30  25  80 W9G16     29.92F WCI  22
MONTICELLO*    CLOUDY    30  27  89 W10       29.94F WCI  21
MIDDLESBORO*   CLOUDY    29  25  84 W5        29.86S WCI  24
HARLAN APT*    CLOUDY    28  27  93 W8        29.81F WCI  20
BLACK MTN*       N/A     19  19 100 N5          N/A  WCI  13
PIKEVILLE APT* LGT SNOW  25  23  93 W8        29.79S WCI  16
BIG SANDY*     LGT SNOW  26  24  93 W5        29.81F WCI  20
MOREHEAD APT*  CLOUDY    25  21  86 NW10      29.88S WCI  15
$$

KYZ035-036-041-042-044-050-067-078-099-262000
...CENTRAL KENTUCKY...

CITY           SKY/WX    TMP DP  RH WIND       PRES   REMARKS
MT STERLING*   CLOUDY    28  23  80 NW12      29.89R WCI  18
FLEMING/MASON* CLOUDY    25  20  83 W13       29.88R WCI  13
DANVILLE*      CLOUDY    30  25  80 NW12      29.91F WCI  21
RICHMOND*      CLOUDY    27  23  86 W15       29.89S WCI  15
LEXINGTON      CLOUDY    27  22  81 W10       29.89F WCI  17
FRANKFORT      CLOUDY    28  21  75 W8        29.90F WCI  20
$$

KYZ091>093-OHZ055-061-077-WVZ005-015-034-035-042-262000
...SOUTHERN OHIO/WEST VIRGINIA...

CITY           SKY/WX    TMP DP  RH WIND       PRES   REMARKS
COVINGTON      PTSUNNY   28  19  69 NW9       29.88F WCI  20
COLUMBUS       PTSUNNY   21  15  78 N14       29.82F WCI   8
DAYTON         PTSUNNY   19  12  74 NW10      29.89S WCI   7
WILMINGTON     CLOUDY    22  15  75 W10       29.85S WCI  11
HUNTINGTON     CLOUDY    26  22  84 W8        29.81F WCI  18
CHARLESTON     LGT SNOW  28  24  85 W13G18    29.77R VSB 3/4 WCI  17
PINEVILLE*     LGT SNOW  33  33  99 MISG      29.75S VSB 1
BECKLEY        SNOW      29  26  89 W14       29.65R VSB 1/2 WCI  18
BLUEFIELD      LGT SNOW  33  28  81 W15G24    29.64R WCI  23
$$

VAZ002-007-008-TNZ017-027-036-066-071-262000
...SOUTHWEST VIRGINIA/EAST TENNESSEE...

CITY           SKY/WX    TMP DP  RH WIND       PRES   REMARKS
WISE*          FLURRIES  28  27  93 NW12G21   29.72S WCI  18
JONESVILLE*    MIX PCPN  30  27  86 W7        29.82F WCI  23
ABINGDON*      CLOUDY    35  30  83 NW16G23   29.70R WCI  25
BRISTOL        CLOUDY    35  29  78 W15G22    29.75R WCI  25
OAK RIDGE      CLOUDY    35  29  78 W7        29.89S WCI  29
CROSSVILLE     CLOUDY    28  25  88 NW7G17    29.87F WCI  21
NASHVILLE      CLOUDY    34  28  80 NW8       29.99F WCI  27
$$

...KEY TO REMARKS...
VSB - VISIBILITY IN MILES
WCI - WIND CHILL INDEX
HX  - HEAT INDEX

$$


USA.gov is the U.S. government's official web portal to all federal, state and local government web resources and services.